Weather History for Francistown, Botswana

Change the Weather History Date:

Tuesday, January 31, 2012

  Actual Average Record
Temperature  
Mean Temperature 82 °F -  
Max Temperature 97 °F 84 °F 98 °F (2001)
Min Temperature 66 °F 65 °F 60 °F (2011)
Cooling Degree Days 16    
Growing Degree Days 32 (Base 50)    
Moisture  
Dew Point 53 °F    
Average Humidity 38    
Maximum Humidity 77    
Minimum Humidity 14    
Precipitation  
Precipitation 0.00 in - - ()
Sea Level Pressure  
Sea Level Pressure 29.92 in    
Wind  
Wind Speed 7 mph ()    
Max Wind Speed 18 mph    
Max Gust Speed 31 mph    
Visibility 6.1 miles    
Events      
Averages and records for this station are not official NWS values.
T = Trace of Precipitation, MM = Missing Value Source: Averaged Metar Reports

Daily Weather History Graph

Daily Weather History Graph

Search for Another Location

Airport:

Trip Planner

Search our weather history database for the weather conditions in past years. The results will help you decide how hot, cold, wet, or windy it might be!

Date:

Astronomy

Jan. 31, 2012 Rise Set
Actual Time 5:51 AM CAT 6:55 PM CAT
Civil Twilight 5:27 AM CAT 7:18 PM CAT
Nautical Twilight 4:59 AM CAT 7:46 PM CAT
Astronomical Twilight 4:31 AM CAT 8:15 PM CAT
Moon 12:42 PM CAT (1/31) No Moon Set
Length of Visible Light 13h 50m
Length of Day
13h 03m
First Quarter, 52% of the Moon is Illuminated
Jan 31
First Quarter
Feb 7
Full
Feb 14
Last Quarter
Feb 22
New
Mar 1
First Quarter

Hourly Weather History & Observations

Time (CAT) Temp. Heat Index Dew Point Humidity Pressure Visibility Wind Dir Wind Speed Gust Speed Precip Events Conditions
12:00 AM 75.2 °F - 57.2 °F 53% 29.92 in - East 3.5 mph - N/A   Clear
1:00 AM 75.2 °F - 57.2 °F 53% 29.92 in - NE 4.6 mph - N/A   Clear
2:00 AM 72 °F - 55 °F 44%  in 6 mi ENE 5.8 mph - -  
3:00 AM 73.4 °F - 57.2 °F 57% 29.92 in - Variable 2.3 mph - N/A   Clear
5:00 AM 64.4 °F - 55.4 °F 73% 29.92 in - ENE 4.6 mph - N/A   Clear
6:00 AM 64.4 °F - 57.2 °F 77% 29.95 in - ENE 4.6 mph - N/A   Clear
7:00 AM 69.8 °F - 59.0 °F 68% 29.95 in - NNE 3.5 mph - N/A   Clear
8:00 AM 78 °F - 60 °F 45%  in 6 mi NNE 6.9 mph - -   Scattered Clouds
8:00 AM 77.0 °F - 60.8 °F 57% 29.98 in - NNE 6.9 mph - N/A   Clear
10:00 AM 86.0 °F 85.4 °F 59.0 °F 40% 29.98 in 6.2 mi ENE 9.2 mph - N/A   Partly Cloudy
11:00 AM 89.6 °F 88.1 °F 57.2 °F 33% 29.95 in 6.2 mi East 9.2 mph - N/A   Partly Cloudy
12:00 PM 89.6 °F 87.3 °F 53.6 °F 29% 29.92 in 6.2 mi East 8.1 mph - N/A   Scattered Clouds
1:00 PM 93.2 °F - 48.2 °F 21% 29.92 in 6.2 mi East 12.7 mph 31.1 mph N/A   Scattered Clouds
2:00 PM 94 °F - 50 °F 14%  in 6 mi East 15.0 mph - -   Haze
2:00 PM 95.0 °F - 50.0 °F 22% 29.89 in 6.2 mi East 15.0 mph - N/A   Scattered Clouds
3:00 PM 95.0 °F - 48.2 °F 20% 29.86 in 6.2 mi East 11.5 mph - N/A   Scattered Clouds
4:00 PM 95.0 °F - 48.2 °F 20% 29.86 in 6.2 mi ESE 18.4 mph - N/A   Partly Cloudy
5:00 PM 95.0 °F - 48.2 °F 20% 29.86 in 6.2 mi ESE 12.7 mph - N/A   Partly Cloudy
6:00 PM 91.4 °F - 48.2 °F 23% 29.86 in 6.2 mi ESE 15.0 mph - N/A   Partly Cloudy
7:00 PM 87.8 °F - 50.0 °F 27% 29.86 in - ESE 13.8 mph - N/A   Clear
8:00 PM 86 °F - 50 °F 19%  in 6 mi East 13.8 mph - -  
8:00 PM 86.0 °F - 50.0 °F 29% 29.89 in - East 13.8 mph - N/A   Clear
9:00 PM 84.2 °F - 51.8 °F 33% 29.92 in - East 10.4 mph - N/A   Clear
10:00 PM 80.6 °F - 51.8 °F 37% 29.95 in - East 6.9 mph - N/A   Clear
11:00 PM 80.6 °F 80.3 °F 53.6 °F 39% 29.95 in - ENE 12.7 mph - N/A   Clear